Regional Weather Roundup
Issued by NWS

Home | Current Version | Previous Version | Graphics & Text | Print | Product List | Glossary Off
Versions: 1 2 3 4 5 6 7 8 9 10 11 12 13 14 15 16 17 18 19 20 21 22 23 24 25 26 27 28 29 30 31 32 33 34 35 36 37 38 39 40 41 42 43 44 45 46 47 48 49 50

956
ASUS44 KLIX 011410
RWRLA
LOUISIANA WEATHER ROUNDUP
NATIONAL WEATHER SERVICE NEW ORLEANS LA
900 AM CDT MON SEP 01 2014

NOTE: "FAIR" INDICATES FEW OR NO CLOUDS BELOW 12,000 FEET WITH NO
      SIGNIFICANT WEATHER AND/OR OBSTRUCTIONS TO VISIBILITY.
      SKY/WX - SKY CONDITION AND SIGNIFICANT WEATHER.
      TMP - AIR TEMPERATURE.    DP   - DEWPOINT TEMPERATURE.
      RH  - RELATIVE HUMIDITY.  PRES - PRESSURE.
      HX  - HEAT INDEX.         WCI  - WIND CHILL INDEX.

*  THESE STATIONS ARE NOT NWS OR FAA STATIONS AND ARE NOT UNDER
   NWS QUALITY CONTROL.

LAZ040-048-061>063-065-066-069-011500-
SOUTHEAST LOUISIANA

CITY           SKY/WX    TMP DP  RH WIND       PRES   REMARKS
N.O. AUDUBON   NOT AVBL
N.O. INTL ARPT PTSUNNY   85  76  74 SE12      30.04S
N.O. LAKEFRONT SUNNY     85  77  77 SE10      30.05S HX  95
N.O. DOWNTOWN* FAIR      84  75  74 SE7       30.05F
SLIDELL        MOSUNNY   85  77  77 E5        30.05S HX  95
BATON ROUGE    SUNNY     82  77  84 E7        30.04S
BOOTHVILLE     MOSUNNY   86  77  74 SE9       30.06R HX  97
BELLE CHASSE   PTSUNNY   84  73  69 VRB3      30.04S
BOGALUSA*      FAIR      81  74  79 CALM      30.08S
GALLIANO*      NOT AVBL
NEW ROADS*     FAIR      82  78  88 SE7       30.03F
GONZALES*      FAIR      83  81  92 E3        30.03F HX  97
HAMMOND*       SUNNY     86  75  70 SE5       30.07R HX  95
HOUMA*         PTSUNNY   81  73  78 S17       30.04R FOG
PORT FOURCHON* SUNNY     82  75  78 SE12      30.06R HAZE

$$

LAZ041-044-053-054-011500-
SOUTHWEST LOUISIANA

CITY           SKY/WX    TMP DP  RH WIND       PRES   REMARKS
LAKE CHARLES   SUNNY     83  78  85 SE12      29.99S
LAFAYETTE      SUNNY     82  77  84 E5        30.02S
PATTERSON      MOSUNNY   84  79  84 SE6       30.05S HX  96
SALT POINT       N/A     87  79  76 SE8       30.01S HX 101
NEW IBERIA     SUNNY     84  78  82 SE9       30.02S HX  95
CHENAULT AIRPK SUNNY     82  77  83 CALM      30.00S

$$

LAZ027-028-011500-
CENTRAL LOUISIANA

CITY           SKY/WX    TMP DP  RH WIND       PRES   REMARKS
FORT POLK      CLOUDY    79  77  94 SE7       30.01S
ALEXANDRIA INT CLOUDY    77  77 100 S8        30.01R FOG
ALEXANDRIA     CLOUDY    80  76  87 CALM      30.03R

$$

LAZ001-002-011500-
NORTHWEST LOUISIANA

CITY           SKY/WX    TMP DP  RH WIND       PRES   REMARKS
SHREVEPORT     CLOUDY    81  75  83 S8        29.99R
BARKSDALE AFB  PTSUNNY   81  75  83 S8        30.00R
DTN SHREVEPORT CLOUDY    80  75  84 S8        29.99S

$$

LAZ014-016-011500-
NORTHEAST LOUISIANA

CITY           SKY/WX    TMP DP  RH WIND       PRES   REMARKS
MONROE         FOG       77  76  96 S7        30.04R VSB 1
TALLULAH       MOSUNNY   81  76  84 S7        30.05R

$$




USA.gov is the U.S. government's official web portal to all federal, state and local government web resources and services.